Weather History for Bemidji, MN

Change the Weather History Date:

Sunday, August 18, 2013

  Actual Average Record
Temperature  
Mean Temperature 72 °F -  
Max Temperature 83 °F 76 °F 98 °F (1955)
Min Temperature 61 °F 54 °F 39 °F (1950)
Cooling Degree Days 7    
Growing Degree Days 22 (Base 50)    
Moisture  
Dew Point 61 °F    
Average Humidity 70    
Maximum Humidity 89    
Minimum Humidity 50    
Precipitation  
Precipitation 0.00 in - - ()
Sea Level Pressure  
Sea Level Pressure 29.97 in    
Wind  
Wind Speed 10 mph (SSW)    
Max Wind Speed 21 mph    
Max Gust Speed 29 mph    
Visibility 10 miles    
Events      
Averages and records for this station are not official NWS values.
T = Trace of Precipitation, MM = Missing Value Source: NWS Daily Summary

Daily Weather History Graph

Daily Weather History Graph

Search for Another Location

Airport:

Trip Planner

Search our weather history database for the weather conditions in past years. The results will help you decide how hot, cold, wet, or windy it might be!

Date:

Astronomy

Aug. 18, 2013 Rise Set
Actual Time 6:20 AM CDT 8:25 PM CDT
Civil Twilight 5:46 AM CDT 8:59 PM CDT
Nautical Twilight 5:05 AM CDT 9:40 PM CDT
Astronomical Twilight 4:18 AM CDT 10:26 PM CDT
Moon 6:36 PM CDT (8/18) 3:24 AM CDT (8/18)
Length of Visible Light 15h 12m
Length of Day
14h 05m
Waxing Gibbous, 92% of the Moon is Illuminated
Aug 18
Waxing Gibbous
Aug 20
Full
Aug 28
Last Quarter
Sep 5
New
Sep 12
First Quarter

Hourly Weather History & Observations

Time (CDT) Temp. Heat Index Dew Point Humidity Pressure Visibility Wind Dir Wind Speed Gust Speed Precip Events Conditions
12:10 AM 67.6 °F - 60.1 °F 77% 30.02 in 10.0 mi South 9.2 mph 16.1 mph N/A   Clear
12:30 AM 67.5 °F - 60.1 °F 77% 30.02 in 10.0 mi SSW 9.2 mph - N/A   Clear
12:50 AM 67.5 °F - 60.3 °F 78% 30.03 in 10.0 mi SSW 8.1 mph - N/A   Clear
1:10 AM 67.1 °F - 60.3 °F 79% 30.03 in 10.0 mi South 9.2 mph - N/A   Clear
1:30 AM 66.7 °F - 60.3 °F 80% 30.02 in 10.0 mi South 8.1 mph - N/A   Clear
1:50 AM 66.4 °F - 60.3 °F 81% 30.02 in 10.0 mi South 10.4 mph - N/A   Clear
2:10 AM 66.4 °F - 60.3 °F 81% 30.02 in 10.0 mi SSW 10.4 mph - N/A   Clear
2:30 AM 65.8 °F - 59.9 °F 81% 30.03 in 10.0 mi SSW 8.1 mph - N/A   Clear
2:50 AM 65.5 °F - 59.9 °F 82% 30.03 in 10.0 mi SSW 9.2 mph - N/A   Clear
3:10 AM 65.3 °F - 59.9 °F 83% 30.02 in 10.0 mi SSW 9.2 mph - N/A   Clear
3:30 AM 64.9 °F - 59.9 °F 84% 30.02 in 10.0 mi South 8.1 mph - N/A   Clear
3:50 AM 64.8 °F - 59.7 °F 84% 30.02 in 10.0 mi SSW 8.1 mph - N/A   Clear
4:10 AM 64.4 °F - 59.4 °F 84% 30.02 in 10.0 mi SSW 6.9 mph - N/A   Clear
4:30 AM 64.0 °F - 59.4 °F 85% 30.02 in 10.0 mi SSW 8.1 mph - N/A   Clear
4:51 AM 63.7 °F - 59.0 °F 85% 30.01 in 10.0 mi South 8.1 mph - N/A   Clear
5:10 AM 63.3 °F - 59.0 °F 86% 30.02 in 10.0 mi South 5.8 mph - N/A   Clear
5:30 AM 62.8 °F - 58.8 °F 87% 30.02 in 10.0 mi South 6.9 mph - N/A   Clear
5:50 AM 62.4 °F - 58.6 °F 87% 30.02 in 10.0 mi South 5.8 mph - N/A   Clear
6:10 AM 61.9 °F - 58.5 °F 89% 30.02 in 10.0 mi South 6.9 mph - N/A   Clear
6:30 AM 62.1 °F - 58.3 °F 87% 30.01 in 10.0 mi South 8.1 mph - N/A   Clear
6:50 AM 61.9 °F - 58.1 °F 87% 30.01 in 10.0 mi South 9.2 mph - N/A   Clear
7:10 AM 62.6 °F - 58.3 °F 86% 30.01 in 10.0 mi South 8.1 mph - N/A   Clear
7:30 AM 63.0 °F - 58.3 °F 85% 30.01 in 10.0 mi South 9.2 mph - N/A   Clear
7:50 AM 63.9 °F - 58.1 °F 81% 30.01 in 10.0 mi South 10.4 mph - N/A   Clear
8:10 AM 64.9 °F - 58.3 °F 79% 30.01 in 10.0 mi South 9.2 mph - N/A   Clear
8:30 AM 66.0 °F - 58.5 °F 77% 30.01 in 10.0 mi South 11.5 mph 16.1 mph N/A   Clear
8:50 AM 67.1 °F - 58.6 °F 74% 30.00 in 10.0 mi South 10.4 mph 17.3 mph N/A   Clear
9:10 AM 68.5 °F - 58.8 °F 71% 30.00 in 10.0 mi South 10.4 mph - N/A   Clear
9:30 AM 68.4 °F - 58.8 °F 71% 30.00 in 10.0 mi SSW 10.4 mph 17.3 mph N/A   Clear
9:50 AM 69.3 °F - 58.8 °F 69% 29.99 in 10.0 mi South 11.5 mph 16.1 mph N/A   Clear
10:10 AM 70.2 °F - 59.2 °F 68% 29.98 in 10.0 mi South 11.5 mph 18.4 mph N/A   Clear
10:30 AM 72.3 °F - 59.9 °F 65% 29.98 in 10.0 mi South 11.5 mph 17.3 mph N/A   Clear
10:50 AM 73.4 °F - 60.1 °F 63% 29.97 in 10.0 mi SSW 11.5 mph 18.4 mph N/A   Clear
11:10 AM 74.5 °F - 60.6 °F 62% 29.95 in 10.0 mi South 16.1 mph 20.7 mph N/A   Clear
11:30 AM 75.9 °F - 61.0 °F 60% 29.94 in 10.0 mi South 16.1 mph 21.9 mph N/A   Clear
11:50 AM 76.5 °F - 61.3 °F 59% 29.96 in 10.0 mi South 12.7 mph 19.6 mph N/A   Clear
12:10 PM 77.5 °F - 61.7 °F 58% 29.97 in 10.0 mi SSW 15.0 mph 23.0 mph N/A   Scattered Clouds
12:30 PM 78.4 °F - 61.9 °F 57% 29.97 in 10.0 mi SSW 13.8 mph 18.4 mph N/A   Mostly Cloudy
12:50 PM 79.9 °F - 62.1 °F 54% 29.96 in 10.0 mi SSW 18.4 mph 21.9 mph N/A   Mostly Cloudy
1:10 PM 80.8 °F 81.9 °F 62.1 °F 53% 29.96 in 10.0 mi SSW 15.0 mph 21.9 mph N/A   Mostly Cloudy
1:30 PM 80.2 °F 81.3 °F 61.9 °F 53% 29.96 in 10.0 mi SSW 16.1 mph 25.3 mph N/A   Mostly Cloudy
1:50 PM 81.3 °F 82.5 °F 62.6 °F 53% 29.97 in 10.0 mi SSW 18.4 mph 24.2 mph N/A   Overcast
2:10 PM 80.4 °F 81.6 °F 62.2 °F 54% 29.96 in 10.0 mi South 16.1 mph 26.5 mph N/A   Overcast
2:30 PM 81.5 °F 82.5 °F 62.2 °F 52% 29.95 in 5.0 mi SSW 18.4 mph 27.6 mph N/A   Haze
2:50 PM 81.0 °F 82.1 °F 62.4 °F 53% 29.94 in 10.0 mi SSW 20.7 mph 26.5 mph N/A   Overcast
3:10 PM 83.3 °F 84.3 °F 62.6 °F 50% 29.93 in 10.0 mi South 19.6 mph 27.6 mph N/A   Mostly Cloudy
3:30 PM 83.3 °F 84.3 °F 63.1 °F 50% 29.92 in 7.0 mi South 18.4 mph 28.8 mph N/A   Mostly Cloudy
3:50 PM 81.7 °F 82.9 °F 63.0 °F 53% 29.92 in 7.0 mi SSW 17.3 mph 25.3 mph N/A   Mostly Cloudy
4:10 PM 81.9 °F 83.1 °F 63.3 °F 53% 29.91 in 7.0 mi South 15.0 mph 25.3 mph N/A   Overcast
4:30 PM 81.9 °F 83.1 °F 63.3 °F 53% 29.91 in 10.0 mi SSW 18.4 mph 24.2 mph N/A   Overcast
4:50 PM 80.1 °F 81.6 °F 63.5 °F 57% 29.91 in 10.0 mi SSW 19.6 mph 24.2 mph N/A   Overcast
5:10 PM 79.3 °F - 63.5 °F 58% 29.90 in 10.0 mi SSW 15.0 mph 24.2 mph N/A   Overcast
5:30 PM 79.3 °F - 63.9 °F 59% 29.90 in 10.0 mi SSW 12.7 mph 23.0 mph N/A   Overcast
5:50 PM 78.4 °F - 63.7 °F 60% 29.90 in 10.0 mi SSW 15.0 mph 20.7 mph N/A   Overcast
6:10 PM 77.9 °F - 63.7 °F 61% 29.91 in 10.0 mi SW 13.8 mph - N/A   Overcast
6:30 PM 77.9 °F - 63.9 °F 62% 29.91 in 10.0 mi SSW 10.4 mph 19.6 mph N/A   Overcast
6:50 PM 77.9 °F - 64.2 °F 63% 29.91 in 10.0 mi SSW 9.2 mph - N/A   Mostly Cloudy
7:10 PM 77.0 °F - 63.7 °F 63% 29.91 in 10.0 mi SSW 11.5 mph 23.0 mph N/A   Scattered Clouds
7:30 PM 76.1 °F - 63.7 °F 65% 29.90 in 7.0 mi SSW 11.5 mph - N/A   Scattered Clouds
7:50 PM 75.0 °F - 63.5 °F 67% 29.90 in 10.0 mi SSW 12.7 mph 18.4 mph N/A   Scattered Clouds
8:10 PM 74.3 °F - 63.5 °F 69% 29.90 in 5.0 mi South 11.5 mph 16.1 mph N/A   Haze
8:30 PM 74.3 °F - 63.5 °F 69% 29.90 in 10.0 mi South 10.4 mph - N/A   Overcast
8:50 PM 73.8 °F - 63.5 °F 70% 29.90 in 10.0 mi South 9.2 mph - N/A   Overcast
9:10 PM 73.0 °F - 63.5 °F 72% 29.91 in 10.0 mi South 9.2 mph - N/A   Scattered Clouds
9:30 PM 72.5 °F - 63.5 °F 73% 29.92 in 10.0 mi South 5.8 mph - N/A   Mostly Cloudy
9:50 PM 72.5 °F - 63.5 °F 73% 29.92 in 10.0 mi South 6.9 mph - N/A   Mostly Cloudy
10:10 PM 72.5 °F - 63.5 °F 73% 29.93 in 10.0 mi South 8.1 mph - N/A   Mostly Cloudy
10:30 PM 72.1 °F - 63.5 °F 74% 29.93 in 10.0 mi South 8.1 mph - N/A   Mostly Cloudy
10:50 PM 71.8 °F - 63.5 °F 75% 29.93 in 10.0 mi South 5.8 mph - N/A   Scattered Clouds
11:10 PM 71.6 °F - 63.1 °F 75% 29.92 in 10.0 mi South 8.1 mph - N/A   Clear
11:30 PM 71.6 °F - 63.0 °F 74% 29.92 in 7.0 mi SSW 6.9 mph - N/A   Clear
11:50 PM 71.1 °F - 63.0 °F 75% 29.91 in 10.0 mi SSW 9.2 mph 16.1 mph N/A   Clear